Temp
25 25 25 26 26 26 26 25 25 24 24 24 23 23 23 23 23 22 22 22 22 22
24 24 24 25 26 26 26 26 25 25 24 24 23 23 23 22 22 22 22 22 22 22
25 25 25 26 26 26 26 25 25 25 24 24 23 23 23 22 22 22 22 22 21 21
24 24 24 25 26 26 25 25 24 25 25 24 23 23 23 23 23 22 22 22 21 21
24 23 24 25 26 26 26 25 25 25 25 24 24 23 23 23 23 22 22 22 22 22
24 23 23 25 24 25 25 25 25 25 24 24 24 24 23 23 23 22 22 22 22 22
24 23 23 24 24 24 25 25 25 25 25 24 24 24 24 23 23 23 22 22 22 22
24 24 23 24 24 24 23 24 25 25 24 25 25 25 24 23 23 23 22 22 22 22
24 24 23 23 23 23 23 23 23 24 24 24 24 25 25 24 23 23 22 22 21 21
24 24 23 23 23 22 22 22 23 23 23 23 24 25 25 25 23 23 22 21 21 21
24 24 23 23 23 22 22 22 22 22 23 23 24 25 25 24 22 21 20 21 21 21
24 24 23 23 23 22 22 22 21 21 21 23 23 24 24 23 21 19 19 20 20 20
24 24 23 23 23 23 22 22 22 21 22 23 23 24 24 23 20 20 20 20 20 20
25 24 24 23 23 22 22 22 22 21 21 22 23 24 24 22 21 20 19 19 19 19
Height
776 780 784 789 794 797 800 803 806 810 814 817 820 822 824 825 828 830 832 832 834 836
769 774 778 782 787 791 795 798 802 805 808 812 815 818 820 823 825 826 828 831 833 835
761 766 771 776 780 784 788 793 796 800 804 807 811 814 816 818 821 824 826 828 830 832
755 760 766 770 774 778 783 787 790 793 798 801 805 809 811 813 817 820 823 825 827 829
747 753 758 763 766 771 775 781 784 788 792 796 800 803 806 809 812 815 818 821 823 825
738 744 748 753 758 762 768 773 778 783 785 789 793 796 800 803 806 810 814 817 819 822
727 732 738 744 750 753 758 764 769 773 779 783 787 790 793 797 801 804 808 812 813 816
717 723 731 736 741 746 750 754 760 766 771 775 779 782 785 789 793 796 800 804 808 811
709 714 720 727 732 738 742 746 751 755 760 765 769 773 778 782 785 789 793 797 803 807
699 705 711 719 726 728 732 738 741 745 750 753 759 765 770 776 779 782 787 789 796 800
690 695 702 709 714 719 724 726 730 734 740 746 750 757 763 770 773 777 780 787 791 793
677 683 691 696 701 709 717 721 722 727 734 739 744 750 756 763 768 772 776 780 784 787
665 674 679 683 691 698 705 710 718 722 726 732 736 742 748 754 760 765 769 774 778 781
659 665 669 677 685 690 695 703 711 716 722 725 730 734 740 744 748 754 763 770 772 777
Wind_Speed
44 42 41 39 34 31 29 26 27 31 29 26 24 22 22 21 19 16 16 15 12 9
44 41 39 40 35 32 32 28 28 32 32 30 28 26 23 24 22 19 17 17 13 12
45 45 42 40 36 33 33 32 31 34 34 32 31 29 26 26 24 21 18 16 16 14
39 41 41 42 39 37 33 31 32 34 35 34 34 32 29 28 27 24 20 19 16 14
40 38 40 44 42 40 39 36 32 34 36 36 36 35 33 31 30 28 25 22 21 19
38 39 41 45 43 44 41 39 36 38 39 39 38 38 36 34 32 30 28 25 23 22
40 42 43 45 42 42 46 43 41 41 41 40 39 39 38 37 35 33 31 28 27 26
42 42 40 41 41 41 41 44 45 42 41 42 41 41 41 40 39 37 34 31 31 28
40 39 40 38 37 40 41 40 42 45 44 45 44 42 39 39 40 39 37 34 30 26
39 38 38 35 34 37 38 38 42 42 44 45 45 43 40 38 38 38 37 35 28 31
38 39 37 37 38 36 37 40 38 42 44 42 46 43 41 37 37 35 33 27 27 29
41 40 38 39 40 36 33 32 36 35 38 42 41 41 38 34 35 32 28 27 24 26
43 40 40 43 40 38 35 35 30 31 38 39 39 37 35 34 33 31 30 26 23 22
37 40 41 37 34 36 35 31 31 29 29 36 36 35 33 33 34 30 27 24 23 22
Wind_Direction
212 215 217 220 225 228 228 231 225 219 220 220 216 215 216 218 220 220 222 221 214 213
211 212 216 222 225 229 228 232 232 220 219 219 217 217 220 219 222 225 224 224 222 225
211 215 220 224 224 225 228 230 234 224 220 220 218 218 222 224 224 226 226 224 224 224
209 212 216 224 226 224 225 228 231 223 219 221 218 218 222 226 225 225 225 225 223 225
206 209 213 222 226 225 225 228 229 222 221 222 220 220 223 226 227 227 224 226 227 233
204 207 211 219 221 224 224 224 225 225 225 224 223 224 225 229 231 231 230 233 230 234
201 207 212 217 217 219 223 223 223 226 227 228 229 230 230 229 232 235 234 234 236 236
203 208 211 213 215 216 218 220 223 224 226 227 229 232 231 231 232 235 236 233 236 238
203 205 209 212 211 214 218 216 221 223 225 226 229 233 235 236 234 235 238 236 231 240
201 204 208 208 209 211 210 211 218 219 221 225 231 233 236 239 237 238 240 237 234 236
200 204 204 205 209 211 208 209 209 215 219 223 232 237 240 239 237 238 238 240 239 240
201 203 201 203 208 209 208 208 210 210 214 224 233 236 237 236 228 231 236 237 236 237
202 204 202 206 206 206 206 209 206 204 219 228 230 234 236 233 222 225 233 235 235 239
203 205 208 206 203 200 202 202 202 202 210 222 227 231 233 227 218 216 217 225 228 229